Location: ????????
(55.0559°N, 39.1270°E)
Time: 17:59:37
(UTC+00:00)

IRS-1D - Pass Details

Date: 15 November 2025
Orbit: 736 x 811 km, 98.8° (Epoch: 14 December)

Event Time Altitude Azimuth Distance (km) Brightness Sun altitude
Rises 02:09:09 0° 19° (NNE) 3,202 7.0 -23.5°
Reaches altitude 10° 02:11:32 10° 24° (NNE) 2,266 6.2 -23.1°
Maximum altitude 02:16:22 51° 101° (E) 932 4.3 -22.4°
Drops below altitude 10° 02:21:09 10° 177° (S) 2,239 6.0 -21.8°
Sets 02:23:28 0° 182° (S) 3,158 6.7 -21.4°
